Port Aransas, TX

10:16 AM CST on February 13, 2016 (GMT -0600)
Port Aransas

Weather History for KRAS - November, 2011

Change the Weather History Date:

Saturday, November 19, 2011

  Actual Average (KCRP) Record (KCRP)
Temperature  
Mean Temperature 76 °F 65 °F  
Max Temperature 78 °F 75 °F 90 °F (1953)
Min Temperature 73 °F 55 °F 34 °F (1959)
Degree Days  
Heating Degree Days 0 3  
Month to date heating degree days 39  
Since 1 July heating degree days 49  
Cooling Degree Days 10 3  
Month to date cooling degree days 93  
Year to date cooling degree days 3444  
Growing Degree Days 26 (Base 50)    
Moisture  
Dew Point 73 °F    
Average Humidity 92    
Maximum Humidity 100    
Minimum Humidity 83    
Precipitation  
Precipitation 0.00 in 0.06 in 2.14 in (1905)
Month to date precipitation 1.41  
Year to date precipitation 29.37  
Snow  
Snow 0.00 in - - ()
Month to date snowfall  
Since 1 July snowfall  
Since 1 September snowfall  
Snow Depth -    
Sea Level Pressure  
Sea Level Pressure 29.96 in    
Wind  
Wind Speed 12 mph (SSE)    
Max Wind Speed 17 mph    
Max Gust Speed 22 mph    
Visibility 5 miles    
Events      
T = Trace of Precipitation, MM = Missing Value Source: NWS Daily Summary

Daily Weather History Graph

Daily Weather History Graph

Search for Another Location

Airport or City:

Trip Planner

Search our weather history database for the weather conditions in past years. The results will help you decide how hot, cold, wet, or windy it might be!

Date:

Astronomy

Nov. 19, 2011 Rise Set
Actual Time 6:52 AM CST 5:34 PM CST
Civil Twilight 6:27 AM CST 5:59 PM CST
Nautical Twilight 5:59 AM CST 6:28 PM CST
Astronomical Twilight 5:31 AM CST 6:56 PM CST
Moon 12:46 AM CST (11/19) 1:24 PM CST (11/19)
Length of Visible Light 11h 31m
Length of Day
10h 42m
Last Quarter, 38% of the Moon is Illuminated
Nov 19
Last Quarter
Nov 25
New
Dec 2
First Quarter
Dec 10
Full
Dec 17
Last Quarter

Hourly Weather History & Observations

Time (CST) Temp. Dew Point Humidity Pressure Visibility Wind Dir Wind Speed Gust Speed Precip Events Conditions
12:15 AM 73.4 °F 69.8 °F 88% 30.00 in 7.0 mi SSE 11.5 mph - N/A   Partly Cloudy
12:35 AM 73.4 °F 69.8 °F 88% 30.00 in 7.0 mi SSE 11.5 mph - N/A   Partly Cloudy
12:55 AM 73.4 °F 69.8 °F 88% 29.99 in 7.0 mi SSE 11.5 mph - N/A   Clear
1:15 AM 73.4 °F 69.8 °F 88% 29.98 in 7.0 mi SSE 12.7 mph - N/A   Clear
1:35 AM 73.4 °F 69.8 °F 88% 29.98 in 8.0 mi SSE 13.8 mph - N/A   Clear
1:55 AM 73.4 °F 69.8 °F 88% 29.97 in 7.0 mi SSE 11.5 mph 17.3 mph N/A   Clear
2:35 AM 73.4 °F 69.8 °F 88% 29.96 in 7.0 mi SSE 15.0 mph - N/A   Clear
2:55 AM 73.4 °F 69.8 °F 88% 29.95 in 7.0 mi SSE 15.0 mph - N/A   Clear
3:15 AM 73.4 °F 69.8 °F 88% 29.95 in 7.0 mi SSE 11.5 mph - N/A   Clear
3:35 AM 73.4 °F 69.8 °F 88% 29.95 in 6.0 mi SSE 12.7 mph - N/A   Clear
3:55 AM 73.4 °F 69.8 °F 88% 29.94 in 7.0 mi SSE 11.5 mph - N/A   Clear
4:15 AM 73.4 °F 71.6 °F 94% 29.94 in 7.0 mi SSE 12.7 mph - N/A   Clear
4:55 AM 73.4 °F 71.6 °F 94% 29.93 in 7.0 mi SSE 13.8 mph - N/A   Clear
5:15 AM 73.4 °F 71.6 °F 94% 29.94 in 7.0 mi SSE 12.7 mph - N/A   Clear
5:35 AM 73.4 °F 71.6 °F 94% 29.94 in 6.0 mi SSE 13.8 mph - N/A   Clear
5:55 AM 73.4 °F 71.6 °F 94% 29.94 in 6.0 mi SSE 15.0 mph - N/A   Clear
6:15 AM 73.4 °F 71.6 °F 94% 29.95 in 5.0 mi South 8.1 mph - N/A   Clear
6:35 AM 73.4 °F 71.6 °F 94% 29.96 in 5.0 mi SSE 11.5 mph - N/A   Clear
6:55 AM 73.4 °F 73.4 °F 100% 29.96 in 4.0 mi SSE 11.5 mph - N/A   Clear
7:15 AM 73.4 °F 73.4 °F 100% 29.97 in 4.0 mi SSE 9.2 mph - N/A   Clear
7:35 AM 73.4 °F 73.4 °F 100% 29.98 in 4.0 mi SSE 9.2 mph - N/A   Partly Cloudy
7:55 AM 75.2 °F 73.4 °F 94% 29.98 in 4.0 mi SSE 6.9 mph - N/A   Scattered Clouds
8:15 AM 75.2 °F 73.4 °F 94% 29.99 in 4.0 mi SSE 8.1 mph - N/A   Mostly Cloudy
8:35 AM 75.2 °F 73.4 °F 94% 29.99 in 4.0 mi SSE 10.4 mph - N/A   Mostly Cloudy
8:55 AM 75.2 °F 73.4 °F 94% 29.99 in 5.0 mi SSE 11.5 mph - N/A   Scattered Clouds
9:35 AM 75.2 °F 73.4 °F 94% 30.00 in 4.0 mi SSE 11.5 mph - N/A   Mostly Cloudy
9:55 AM 75.2 °F 73.4 °F 94% 30.00 in 5.0 mi SSE 13.8 mph - N/A   Mostly Cloudy
10:15 AM 75.2 °F 73.4 °F 94% 30.00 in 5.0 mi SSE 9.2 mph - N/A   Mostly Cloudy
10:35 AM 75.2 °F 73.4 °F 94% 29.99 in 4.0 mi SSE 10.4 mph - N/A   Mostly Cloudy
10:55 AM 77.0 °F 73.4 °F 89% 29.99 in 5.0 mi SSE 11.5 mph 16.1 mph N/A   Mostly Cloudy
11:15 AM 77.0 °F 73.4 °F 89% 29.98 in 5.0 mi SSE 15.0 mph - N/A   Mostly Cloudy
11:55 AM 78.8 °F 73.4 °F 83% 29.98 in 5.0 mi SSE 15.0 mph - N/A   Haze
12:15 PM 78.8 °F 73.4 °F 83% 29.96 in 5.0 mi SSE 13.8 mph - N/A   Partly Cloudy
12:35 PM 78.8 °F 73.4 °F 83% 29.95 in 5.0 mi SSE 15.0 mph - N/A   Scattered Clouds
1:15 PM 78.8 °F 73.4 °F 83% 29.93 in 5.0 mi SSE 13.8 mph 19.6 mph N/A   Haze
1:35 PM 78.8 °F 73.4 °F 83% 29.93 in 5.0 mi SSE 13.8 mph 20.7 mph N/A   Haze
1:55 PM 78.8 °F 73.4 °F 83% 29.92 in 5.0 mi SSE 13.8 mph - N/A   Haze
2:15 PM 78.8 °F 73.4 °F 83% 29.91 in 5.0 mi SSE 13.8 mph 19.6 mph N/A   Haze
2:35 PM 78.8 °F 73.4 °F 83% 29.91 in 5.0 mi SSE 13.8 mph - N/A   Haze
2:55 PM 78.8 °F 73.4 °F 83% 29.91 in 5.0 mi SSE 13.8 mph - N/A   Haze
3:15 PM 78.8 °F 73.4 °F 83% 29.90 in 5.0 mi SSE 16.1 mph 20.7 mph N/A   Haze
3:35 PM 78.8 °F 73.4 °F 83% 29.90 in 5.0 mi SSE 15.0 mph - N/A   Clear
3:55 PM 78.8 °F 73.4 °F 83% 29.90 in 4.0 mi SSE 16.1 mph - N/A   Clear
4:15 PM 77.0 °F 73.4 °F 89% 29.90 in 4.0 mi SSE 16.1 mph 20.7 mph N/A   Clear
4:35 PM 77.0 °F 73.4 °F 89% 29.91 in 4.0 mi SSE 17.3 mph 21.9 mph N/A   Clear
4:55 PM 75.2 °F 73.4 °F 94% 29.91 in 4.0 mi SSE 17.3 mph - N/A   Clear
5:15 PM 75.2 °F 73.4 °F 94% 29.92 in 4.0 mi SSE 16.1 mph - N/A   Clear
5:55 PM 75.2 °F 75.2 °F 100% 29.93 in 3.0 mi SSE 15.0 mph - N/A   Clear
6:15 PM 75.2 °F 75.2 °F 100% 29.94 in 3.0 mi SSE 12.7 mph - N/A   Clear
6:55 PM 75.2 °F 75.2 °F 100% 29.96 in 4.0 mi SSE 13.8 mph - N/A   Clear
7:15 PM 75.2 °F 75.2 °F 100% 29.97 in 4.0 mi SSE 9.2 mph - N/A   Clear
7:35 PM 75.2 °F 75.2 °F 100% 29.97 in 4.0 mi SSE 9.2 mph - N/A   Partly Cloudy
7:55 PM 75.2 °F 75.2 °F 100% 29.98 in 4.0 mi SSE 8.1 mph - N/A   Partly Cloudy
8:15 PM 73.4 °F 73.4 °F 100% 29.98 in 4.0 mi SSE 10.4 mph - N/A   Clear
8:35 PM 73.4 °F 73.4 °F 100% 29.99 in 4.0 mi SSE 9.2 mph - N/A   Clear
8:55 PM 73.4 °F 73.4 °F 100% 29.99 in 4.0 mi SSE 10.4 mph - N/A   Clear
9:15 PM 73.4 °F 73.4 °F 100% 29.99 in 4.0 mi SSE 9.2 mph - N/A   Partly Cloudy
9:35 PM 73.4 °F 73.4 °F 100% 29.99 in 4.0 mi SSE 9.2 mph - N/A   Clear
9:55 PM 73.4 °F 73.4 °F 100% 30.00 in 4.0 mi SSE 10.4 mph - N/A   Clear
10:15 PM 73.4 °F 73.4 °F 100% 30.00 in 4.0 mi SSE 9.2 mph - N/A   Clear
10:35 PM 73.4 °F 73.4 °F 100% 30.00 in 4.0 mi SSE 10.4 mph - N/A   Clear
10:55 PM 73.4 °F 73.4 °F 100% 30.00 in 4.0 mi SSE 12.7 mph - N/A   Clear
11:15 PM 73.4 °F 73.4 °F 100% 30.00 in 4.0 mi SSE 10.4 mph - N/A   Clear
11:35 PM 73.4 °F 73.4 °F 100% 30.00 in 4.0 mi SSE 9.2 mph - N/A   Clear
11:55 PM 73.4 °F 73.4 °F 100% 30.00 in 4.0 mi SSE 10.4 mph - N/A   Clear